TIANLIAN 2-04

Last updated on Mon Sep 07 2026 00:03:02 GMT+0000 (Coordinated Universal Time)

1 63361U 25062A 26249.68408948 -.00000154 00000+0 00000+0 0 9993 2 63361 4.1721 273.3104 0032892 7.9012 30.8891 1.00270517 5422
UTC large
Height (km)
Speed (km/s)
/
Latitude / Longitude
Inclination (degrees)
Orbital Period (minutes)
Azimuth
Elevation
Range (km)
Doppler Factor

Next 0 passes for location: London (51.5072 / 0.1276)

No passes found over London.
TIANLIAN 2-04